Weather History for Seward, AK

Change the Weather History Date:

Monday, May 5, 2014

  Actual Average Record
Temperature  
Mean Temperature 45 °F -  
Max Temperature 48 °F 47 °F 72 °F (2004)
Min Temperature 42 °F 36 °F 28 °F (2001)
Degree Days  
Heating Degree Days 20    
Moisture  
Dew Point 40 °F    
Average Humidity 85    
Maximum Humidity 96    
Minimum Humidity 77    
Precipitation  
Precipitation 0.00 in - - ()
Sea Level Pressure  
Sea Level Pressure 29.96 in    
Wind  
Wind Speed 5 mph (South)    
Max Wind Speed 14 mph    
Max Gust Speed 17 mph    
Visibility 9 miles    
Events      
Averages and records for this station are not official NWS values.
T = Trace of Precipitation, MM = Missing Value Source: NWS Daily Summary

Daily Weather History Graph

Daily Weather History Graph

Search for Another Location

Airport:

Trip Planner

Search our weather history database for the weather conditions in past years. The results will help you decide how hot, cold, wet, or windy it might be!

Date:

Astronomy

May. 05, 2014 Rise Set
Actual Time 5:43 AM AKDT 10:06 PM AKDT
Civil Twilight 4:47 AM AKDT 11:03 PM AKDT
Nautical Twilight 3:11 AM AKDT 12:43 AM AKDT
Astronomical Twilight Sun does not rise Sun does not rise
Moon 11:21 AM AKDT (5/5) 2:50 AM AKDT (5/5)
Length of Visible Light 18h 16m
Length of Day
16h 23m
Waxing Crescent, 38% of the Moon is Illuminated
May 5
Waxing Crescent
May 6
First Quarter
May 14
Full
May 21
Last Quarter
May 28
New

Hourly Weather History & Observations

Time (AKDT) Temp. Windchill Dew Point Humidity Pressure Visibility Wind Dir Wind Speed Gust Speed Precip Events Conditions
12:28 AM 43.0 °F - 41.0 °F 93% 29.92 in 9.0 mi Calm Calm - N/A   Scattered Clouds
12:39 AM 42.1 °F - 39.0 °F 89% 29.92 in 9.0 mi Calm Calm - N/A   Mostly Cloudy
12:53 AM 43.0 °F 41.3 °F 39.9 °F 89% 29.93 in 10.0 mi SSE 3.5 mph - N/A   Overcast
1:37 AM 43.0 °F 39.5 °F 41.0 °F 93% 29.93 in 2.5 mi South 5.8 mph - N/A   Overcast
1:53 AM 43.0 °F - 41.0 °F 93% 29.93 in 1.2 mi Calm Calm - N/A   Overcast
2:10 AM 42.1 °F 40.2 °F 41.0 °F 96% 29.94 in 2.0 mi South 3.5 mph - N/A   Overcast
2:24 AM 42.1 °F 40.2 °F 41.0 °F 96% 29.94 in 4.0 mi SW 3.5 mph - N/A   Overcast
2:53 AM 43.0 °F - 41.0 °F 93% 29.93 in 6.0 mi Calm Calm - N/A   Overcast
3:53 AM 43.0 °F - 39.9 °F 89% 29.93 in 9.0 mi Calm Calm - N/A   Overcast
4:53 AM 43.0 °F 41.3 °F 39.9 °F 89% 29.93 in 10.0 mi SSE 3.5 mph - N/A   Overcast
5:53 AM 43.0 °F 41.3 °F 39.9 °F 89% 29.92 in 10.0 mi SSE 3.5 mph - N/A   Overcast
6:53 AM 43.0 °F 41.3 °F 39.9 °F 89% 29.93 in 10.0 mi SW 3.5 mph - N/A   Overcast
7:06 AM 43.0 °F 41.3 °F 39.9 °F 89% 29.93 in 10.0 mi South 3.5 mph - N/A   Overcast
7:24 AM 43.0 °F 40.3 °F 39.9 °F 89% 29.94 in 9.0 mi SSE 4.6 mph - N/A   Overcast
7:53 AM 43.0 °F 39.5 °F 39.9 °F 89% 29.94 in 10.0 mi SSW 5.8 mph - N/A   Overcast
8:12 AM 44.1 °F 39.5 °F 39.9 °F 85% 29.95 in 10.0 mi South 8.1 mph - N/A   Overcast
8:53 AM 44.1 °F 39.0 °F 39.9 °F 85% 29.95 in 10.0 mi South 9.2 mph - N/A   Overcast
10:33 AM 45.0 °F 41.8 °F 39.9 °F 82% 29.96 in 10.0 mi South 5.8 mph - N/A   Overcast
10:53 AM 45.0 °F 41.2 °F 39.9 °F 82% 29.96 in 10.0 mi South 6.9 mph - N/A   Overcast
11:53 AM 46.0 °F 41.9 °F 39.9 °F 79% 29.97 in 10.0 mi SSE 8.1 mph - N/A   Overcast
12:53 PM 46.0 °F 41.4 °F 39.9 °F 79% 29.97 in 10.0 mi South 9.2 mph - N/A   Overcast
1:01 PM 46.9 °F - 39.9 °F 77% 29.97 in 10.0 mi SSE 10.4 mph - N/A   Overcast
1:53 PM 46.9 °F - 39.9 °F 77% 29.97 in 10.0 mi SSE 11.5 mph - N/A   Overcast
2:53 PM 46.9 °F - 41.0 °F 80% 29.97 in 10.0 mi SSE 11.5 mph - N/A   Overcast
3:53 PM 48.0 °F - 41.0 °F 77% 29.98 in 10.0 mi SSE 12.7 mph - N/A   Overcast
4:33 PM 46.9 °F - 41.0 °F 80% 29.97 in 10.0 mi SSE 11.5 mph - N/A   Overcast
4:53 PM 46.9 °F - 41.0 °F 80% 29.98 in 10.0 mi SSE 11.5 mph - N/A   Overcast
5:53 PM 46.0 °F 41.4 °F 41.0 °F 83% 29.98 in 10.0 mi South 9.2 mph - N/A   Overcast
6:53 PM 46.0 °F 41.4 °F 41.0 °F 83% 29.98 in 10.0 mi SSE 9.2 mph - N/A   Overcast
7:21 PM 46.0 °F 41.4 °F 41.0 °F 83% 29.99 in 10.0 mi South 9.2 mph - N/A   Overcast
7:42 PM 45.0 °F 38.5 °F 41.0 °F 86% 29.98 in 10.0 mi SSE 13.8 mph - N/A   Overcast
7:53 PM 45.0 °F 38.5 °F 41.0 °F 86% 29.99 in 10.0 mi SSE 13.8 mph - N/A   Overcast
8:32 PM 46.0 °F 39.9 °F 41.0 °F 83% 29.99 in 10.0 mi SSE 13.8 mph - N/A   Overcast
8:42 PM 45.0 °F 39.3 °F 41.0 °F 86% 29.99 in 10.0 mi SSE 11.5 mph - N/A   Overcast
8:53 PM 46.0 °F 40.2 °F 41.0 °F 83% 29.99 in 10.0 mi SSE 12.7 mph - N/A   Overcast
9:53 PM 45.0 °F 39.3 °F 41.0 °F 86% 29.99 in 10.0 mi SSE 11.5 mph - N/A   Overcast
10:37 PM 45.0 °F 38.5 °F 41.0 °F 86% 29.99 in 10.0 mi SSE 13.8 mph - N/A   Overcast
10:53 PM 45.0 °F 38.9 °F 39.9 °F 82% 30.00 in 10.0 mi SSE 12.7 mph 17.3 mph N/A   Overcast
11:04 PM 45.0 °F 40.6 °F 39.9 °F 82% 30.00 in 10.0 mi SSE 8.1 mph - N/A   Overcast
11:50 PM 44.6 °F 38.8 °F 39.2 °F 81% 29.99 in 10.0 mi SSE 11.5 mph - N/A   Overcast
11:53 PM 45.0 °F 39.3 °F 39.9 °F 82% 29.99 in 10.0 mi SSE 11.5 mph - N/A   Overcast